Probability
0 0 0 0 0 0 0 0 0 0 0 0 0 0 0 0 0 0 0 0 3 6 6 6 6 6 6 6 6 6 6 3 3 3 3 3 6 3 3 3 6 0 0
0 0 0 0 0 0 0 0 0 0 0 0 0 0 0 0 0 0 0 0 0 3 6 6 6 6 6 6 6 6 6 6 3 3 3 0 3 0 0 3 3 0 0
0 0 0 0 0 0 0 0 0 0 0 0 0 0 0 0 0 0 0 0 0 0 3 6 6 6 6 10 10 6 3 3 0 0 0 0 0 0 0 3 0 0 0
0 0 0 0 0 0 0 0 0 0 0 0 0 0 0 0 0 0 0 0 0 0 0 3 3 6 6 6 10 6 3 0 0 0 0 0 0 0 0 3 0 0 0
0 0 0 0 0 0 0 0 0 0 0 0 0 0 0 0 0 0 0 0 0 0 0 0 0 0 0 0 0 3 6 3 3 0 0 0 0 0 0 0 0 0 0
0 0 0 0 0 0 0 0 0 0 0 0 0 0 0 0 0 0 0 0 0 0 0 0 0 0 0 0 0 3 3 6 3 3 0 0 0 0 0 0 0 0 0
0 0 0 0 0 0 0 0 0 0 0 0 0 0 0 0 0 0 0 0 0 0 0 0 0 0 0 0 0 0 3 3 6 3 0 0 0 0 0 0 0 0 0
0 0 0 0 0 0 0 0 0 0 0 0 0 0 0 0 0 0 0 0 0 0 0 0 0 0 0 0 0 0 0 3 3 3 3 0 0 0 0 0 0 0 0
0 0 0 0 0 0 0 0 0 0 0 0 0 0 0 0 0 0 0 0 0 0 0 0 0 0 0 0 0 0 0 0 0 0 3 3 3 0 0 0 0 0 0
0 0 0 0 0 0 0 0 0 0 0 0 0 0 0 0 0 0 0 0 0 0 0 0 0 0 0 0 0 0 0 0 0 0 0 0 0 3 3 3 0 0 0
0 0 0 0 0 0 0 0 0 0 0 0 0 0 0 0 0 0 0 0 0 0 0 0 0 0 0 0 0 0 0 0 0 0 0 0 0 0 0 3 3 0 0
0 0 0 0 0 0 0 0 0 0 0 0 0 0 0 0 0 0 0 0 0 0 0 0 0 0 0 0 0 0 0 0 0 0 0 0 0 0 0 0 0 0 0
0 0 0 0 0 0 0 0 0 0 0 0 0 0 0 0 0 0 0 0 0 0 0 0 0 0 0 0 0 0 0 0 0 0 0 0 0 0 0 0 0 0 0
0 0 0 0 0 0 0 0 0 0 0 0 0 0 0 0 0 0 0 0 0 0 0 0 0 0 0 0 0 0 0 0 0 0 0 0 0 0 0 0 0 0 0
0 0 0 0 0 0 0 0 0 0 0 0 0 0 0 0 0 0 0 0 0 0 0 0 0 0 0 0 0 0 0 0 0 0 0 0 0 0 0 0 0 0 0
0 0 0 0 0 0 0 0 0 0 0 0 0 0 0 0 0 0 0 0 0 0 0 0 0 0 0 0 0 0 0 0 0 0 0 0 0 0 0 0 0 0 0
0 0 0 0 0 0 0 0 0 0 0 0 0 0 0 0 0 0 0 0 0 0 0 0 0 0 0 0 0 0 0 0 0 0 0 0 0 0 0 0 0 0 0
0 0 0 0 0 0 0 0 0 0 0 0 0 0 0 0 0 0 0 0 0 0 0 0 0 0 0 0 0 0 0 0 0 0 0 0 0 0 0 0 0 0 0
0 0 0 0 0 0 0 0 0 0 0 0 0 0 0 0 0 0 0 0 0 0 0 0 0 0 0 0 0 0 0 0 0 0 0 0 0 0 0 0 0 0 0
0 0 0 0 0 0 0 0 0 0 0 0 0 0 0 0 0 0 0 0 0 0 0 0 0 0 0 0 0 0 0 0 0 0 0 0 0 0 0 0 0 0 0
0 0 0 0 0 0 0 0 0 0 0 0 0 0 0 0 0 0 0 0 0 0 0 0 0 0 0 0 0 0 0 0 0 0 0 0 0 0 0 0 0 0 0
0 0 0 0 0 0 0 0 0 0 0 0 0 0 0 0 0 0 0 0 0 0 0 0 0 0 0 0 0 0 0 0 0 0 0 0 0 0 0 0 0 0 0
0 0 0 0 0 0 0 0 0 0 0 0 0 0 0 0 0 0 0 0 0 0 0 0 0 0 0 0 0 0 0 0 0 0 0 0 0 0 0 0 0 0 0
0 0 0 0 0 0 0 0 0 0 0 0 0 0 0 0 0 0 0 0 0 0 0 0 0 0 0 0 0 0 0 0 0 0 0 0 0 0 0 0 0 0 0
0 0 0 0 0 0 0 0 0 0 0 0 0 0 0 0 0 0 0 0 0 0 0 0 0 0 0 0 0 0 0 0 0 0 0 0 0 0 0 0 0 0 0
0 0 0 0 0 0 0 0 0 0 0 0 0 0 0 0 0 0 0 0 0 0 0 0 0 0 0 0 0 0 0 0 0 0 0 0 0 0 0 0 0 0 0
Height
5791 5793 5794 5795 5796 5798 5799 5801 5802 5803 5804 5805 5806 5807 5808 5809 5811 5812 5813 5814 5815 5816 5816 5817 5818 5819 5820 5821 5822 5822 5823 5823 5824 5825 5826 5826 5826 5827 5827 5827 5827 5827 5828
5782 5784 5786 5787 5788 5790 5791 5793 5794 5795 5796 5797 5798 5799 5800 5801 5803 5804 5805 5806 5807 5808 5809 5810 5811 5812 5813 5814 5814 5815 5815 5816 5817 5817 5818 5819 5819 5820 5820 5820 5821 5821 5821
5774 5775 5777 5779 5780 5781 5783 5784 5786 5787 5788 5789 5790 5791 5792 5793 5794 5796 5797 5798 5799 5800 5801 5802 5803 5804 5805 5806 5806 5807 5807 5808 5809 5809 5810 5811 5812 5812 5813 5813 5813 5813 5814
5764 5766 5768 5769 5771 5772 5774 5775 5777 5778 5779 5780 5781 5782 5784 5785 5786 5787 5788 5789 5790 5791 5793 5793 5794 5795 5796 5797 5798 5798 5799 5799 5800 5801 5801 5802 5803 5804 5805 5805 5805 5805 5806
5754 5756 5758 5759 5761 5763 5764 5766 5767 5768 5770 5771 5772 5773 5774 5775 5776 5777 5778 5779 5780 5781 5783 5784 5785 5786 5786 5787 5788 5789 5789 5790 5791 5791 5792 5793 5794 5795 5796 5796 5796 5797 5797
5745 5746 5747 5749 5751 5752 5754 5755 5756 5758 5759 5761 5762 5763 5764 5765 5766 5767 5768 5769 5770 5771 5772 5773 5774 5775 5776 5777 5778 5779 5779 5780 5781 5782 5782 5783 5784 5785 5786 5786 5787 5787 5788
5734 5736 5737 5738 5740 5741 5743 5744 5745 5747 5748 5749 5751 5752 5753 5754 5755 5756 5757 5758 5759 5759 5760 5762 5763 5764 5765 5766 5767 5768 5768 5769 5770 5771 5772 5773 5774 5774 5775 5776 5777 5777 5778
5724 5725 5726 5727 5729 5730 5732 5733 5734 5735 5736 5737 5739 5740 5741 5743 5743 5744 5745 5746 5746 5747 5748 5749 5751 5752 5753 5754 5755 5756 5757 5758 5759 5759 5760 5762 5762 5763 5764 5765 5766 5766 5767
5713 5714 5715 5716 5717 5718 5720 5721 5722 5723 5724 5725 5726 5727 5729 5730 5732 5732 5733 5733 5734 5735 5736 5736 5738 5739 5740 5741 5742 5743 5744 5745 5746 5747 5748 5749 5750 5752 5753 5753 5754 5755 5756
5701 5702 5703 5704 5705 5707 5708 5709 5710 5711 5711 5712 5713 5714 5716 5717 5719 5720 5721 5721 5721 5722 5723 5724 5725 5726 5727 5728 5729 5730 5731 5732 5734 5734 5735 5736 5737 5739 5740 5741 5742 5743 5744
5690 5690 5691 5692 5693 5694 5695 5696 5697 5698 5698 5699 5700 5701 5702 5703 5704 5706 5708 5709 5708 5709 5709 5710 5711 5712 5713 5714 5716 5717 5718 5719 5720 5721 5722 5723 5724 5726 5727 5728 5729 5731 5732
5678 5678 5679 5680 5681 5682 5682 5683 5684 5685 5685 5686 5687 5688 5688 5689 5690 5691 5693 5695 5695 5696 5696 5697 5698 5699 5699 5700 5701 5703 5704 5705 5706 5707 5708 5710 5711 5712 5714 5715 5716 5718 5719
5666 5666 5667 5667 5668 5668 5669 5670 5671 5672 5673 5673 5674 5674 5675 5675 5676 5677 5678 5680 5681 5682 5682 5683 5684 5684 5685 5686 5687 5688 5689 5690 5692 5693 5694 5695 5696 5698 5700 5701 5703 5704 5705
5653 5653 5654 5654 5654 5655 5656 5656 5657 5658 5659 5660 5660 5660 5660 5661 5661 5662 5663 5664 5665 5667 5668 5669 5669 5670 5670 5671 5672 5673 5675 5676 5677 5678 5679 5680 5682 5683 5685 5686 5688 5689 5690
5640 5640 5640 5641 5641 5642 5642 5643 5643 5644 5645 5645 5646 5646 5646 5646 5646 5647 5648 5649 5650 5651 5654 5655 5655 5655 5656 5657 5658 5659 5660 5661 5662 5663 5664 5665 5667 5668 5669 5671 5672 5673 5675
5626 5626 5627 5627 5627 5628 5628 5628 5629 5630 5631 5631 5631 5632 5631 5631 5631 5632 5632 5633 5634 5635 5637 5640 5640 5640 5641 5642 5643 5644 5645 5646 5647 5648 5649 5650 5651 5652 5654 5655 5656 5657 5658
5612 5612 5612 5613 5613 5613 5614 5614 5615 5615 5616 5616 5616 5616 5617 5616 5616 5617 5617 5618 5618 5619 5621 5623 5624 5625 5625 5626 5627 5628 5629 5630 5631 5632 5633 5634 5635 5636 5637 5639 5639 5640 5641
5598 5598 5598 5598 5599 5599 5599 5599 5600 5600 5600 5601 5601 5601 5601 5601 5601 5601 5601 5601 5602 5602 5604 5606 5607 5608 5609 5610 5611 5612 5613 5614 5615 5616 5616 5617 5618 5619 5620 5621 5622 5623 5624
5583 5583 5584 5584 5584 5584 5584 5584 5584 5585 5585 5585 5585 5585 5585 5585 5585 5585 5585 5585 5585 5586 5586 5588 5590 5591 5592 5593 5594 5595 5596 5597 5598 5598 5599 5600 5601 5602 5602 5603 5604 5606 5607
5568 5568 5569 5569 5569 5569 5569 5569 5568 5568 5569 5569 5568 5569 5569 5569 5569 5569 5568 5569 5569 5569 5570 5571 5572 5573 5575 5575 5576 5578 5579 5580 5580 5580 5581 5582 5583 5583 5585 5586 5587 5588 5588
5553 5554 5554 5554 5554 5554 5553 5553 5553 5552 5552 5552 5552 5552 5552 5552 5552 5552 5552 5552 5552 5552 5553 5553 5555 5556 5556 5557 5558 5559 5561 5561 5562 5562 5563 5564 5565 5566 5566 5567 5567 5568 5569
5538 5538 5538 5538 5538 5538 5537 5537 5536 5536 5535 5535 5535 5535 5535 5535 5535 5535 5535 5535 5535 5535 5536 5536 5537 5538 5539 5539 5539 5540 5541 5543 5545 5545 5544 5545 5545 5546 5547 5548 5548 5549 5550
5523 5522 5522 5522 5521 5521 5521 5520 5519 5519 5519 5518 5518 5517 5517 5517 5517 5517 5517 5517 5517 5517 5517 5518 5519 5520 5520 5521 5521 5521 5521 5522 5524 5525 5524 5526 5526 5527 5528 5528 5529 5530 5531
5507 5506 5506 5505 5505 5504 5503 5503 5502 5501 5501 5500 5500 5500 5500 5500 5499 5499 5499 5499 5499 5499 5499 5499 5501 5501 5501 5501 5501 5502 5502 5503 5505 5504 5504 5506 5507 5508 5508 5508 5509 5510 5511
5490 5489 5489 5488 5488 5487 5486 5485 5484 5484 5483 5483 5482 5482 5481 5482 5481 5481 5481 5482 5481 5481 5480 5481 5482 5482 5482 5482 5482 5482 5482 5483 5485 5486 5485 5486 5487 5488 5489 5490 5490 5490 5491
5473 5473 5472 5471 5470 5470 5469 5467 5466 5466 5466 5465 5464 5463 5463 5463 5462 5461 5461 5462 5463 5463 5462 5463 5463 5464 5464 5464 5463 5463 5463 5463 5464 5466 5466 5466 5467 5467 5469 5471 5470 5470 5471
Wind_Speed
37 37 37 36 36 36 36 34 34 34 34 34 33 34 34 33 33 33 32 32 32 33 33 33 33 33 33 33 33 32 32 32 32 31 30 30 30 30 30 30 30 29 29
38 38 39 39 38 38 38 37 36 36 36 37 36 37 37 36 36 35 35 35 35 35 35 36 35 35 35 36 35 35 35 34 34 33 33 32 32 32 33 33 32 32 32
39 40 40 40 40 40 40 39 39 39 38 38 38 38 39 39 38 38 38 37 37 38 38 38 38 37 37 37 38 37 37 37 37 36 36 35 35 35 35 35 34 34 34
39 40 41 41 41 41 41 41 41 41 40 40 40 40 40 41 41 40 40 40 40 40 40 41 40 40 40 40 40 40 40 39 39 39 38 38 38 37 38 38 37 37 37
41 41 41 42 43 43 43 43 43 43 42 42 42 42 42 43 42 42 42 42 42 42 42 43 43 43 43 42 42 42 42 42 41 40 40 40 40 40 40 40 40 40 39
43 43 43 43 44 44 44 44 44 44 44 44 45 45 45 45 45 45 44 44 44 44 44 45 45 45 45 44 44 44 44 44 44 43 43 43 43 42 42 42 42 42 41
44 44 44 44 45 45 45 45 45 46 46 46 46 46 47 46 47 47 48 48 48 47 47 47 47 46 47 47 46 46 46 46 46 46 45 45 45 44 44 44 44 43 43
44 45 45 45 45 46 47 46 46 47 47 47 48 48 47 47 48 49 49 49 49 49 49 50 49 49 49 49 49 49 48 48 47 47 47 46 46 46 46 45 45 44 44
44 45 45 46 46 47 47 48 48 48 48 48 49 49 49 49 49 49 49 49 50 50 50 50 51 51 51 51 51 51 50 50 49 49 48 48 48 48 48 48 47 47 47
45 46 46 46 46 47 48 48 48 48 48 48 49 49 49 49 50 50 49 50 50 51 51 52 52 53 53 53 53 53 52 52 52 51 50 49 50 50 50 50 50 49 49
46 45 47 47 46 46 47 47 48 48 49 48 48 49 50 50 51 51 50 50 51 52 52 53 53 54 54 53 53 54 53 52 52 53 53 52 51 51 51 51 51 51 51
46 46 47 48 48 48 48 48 48 49 49 48 48 49 49 50 51 51 51 51 51 52 53 53 54 54 54 54 54 55 55 54 54 55 55 55 53 52 52 53 53 53 52
47 47 48 48 49 50 50 49 49 49 49 50 49 49 50 50 51 52 52 52 52 53 53 53 54 54 54 54 55 55 55 55 55 55 56 56 56 56 55 55 55 55 54
47 48 49 49 49 51 51 52 51 51 50 51 51 50 51 51 52 52 53 53 53 53 53 53 53 53 53 54 54 55 55 55 55 56 56 57 57 58 57 57 57 57 57
48 49 50 50 50 50 51 52 52 52 51 51 52 51 51 52 52 52 53 53 54 54 53 52 53 54 54 54 55 56 56 55 56 56 56 57 58 58 58 58 59 59 59
49 49 50 50 50 51 51 52 52 52 52 52 53 53 53 53 53 54 54 55 55 55 54 53 53 54 55 55 56 56 57 57 57 57 57 57 58 58 59 59 59 59 60
50 50 49 50 50 50 51 52 53 53 53 54 54 55 55 55 55 56 56 56 57 57 57 56 56 56 56 56 57 58 58 58 58 59 59 60 60 60 61 61 60 61 61
51 51 50 50 50 51 51 51 52 53 54 54 55 55 56 56 56 57 57 57 58 59 59 59 59 58 58 58 59 60 60 60 60 60 61 61 61 61 61 62 61 62 62
51 51 51 51 51 51 52 52 52 53 53 54 55 56 56 57 57 57 57 58 58 59 59 60 60 60 60 61 61 61 61 61 60 61 61 61 62 61 61 61 62 62 62
52 52 52 52 52 53 53 53 53 53 53 54 55 56 56 57 57 58 57 58 58 58 59 59 59 60 61 61 62 63 63 62 61 61 62 62 62 62 62 62 63 63 62
52 52 53 53 53 54 54 54 55 55 56 56 57 57 58 58 58 58 58 58 59 59 59 59 60 60 61 61 63 64 64 63 63 63 63 63 63 63 63 63 63 63 63
53 53 54 55 55 55 56 56 56 57 57 58 58 59 59 59 59 59 59 59 59 59 60 61 61 61 61 62 63 63 64 64 64 64 65 64 64 63 63 63 63 63 62
54 55 55 56 57 57 57 57 57 57 58 58 58 59 59 59 59 59 60 60 60 61 61 61 61 61 62 62 63 64 64 64 63 64 65 65 65 64 63 63 63 64 64
54 55 56 57 58 58 58 58 59 59 59 59 59 59 59 59 59 59 61 61 60 60 61 62 62 62 62 62 62 62 62 63 63 64 65 65 64 64 64 64 65 65 65
54 55 56 57 58 58 59 59 60 60 60 59 59 60 60 59 59 60 61 61 61 60 60 61 61 61 61 61 62 62 63 63 63 63 63 64 63 63 63 64 64 64 64
54 55 56 57 57 58 58 59 59 60 60 60 60 60 60 60 60 60 61 61 61 60 60 60 60 60 61 61 62 62 63 64 64 63 62 63 63 63 62 62 63 63 64
Wind_Direction
250 251 252 251 251 252 253 253 253 254 255 255 255 254 254 254 254 255 255 255 256 256 256 257 258 258 257 257 258 258 257 258 258 259 259 259 260 261 262 263 264 265 266
251 252 251 252 252 252 253 253 252 253 254 255 256 255 254 255 255 255 256 257 257 257 257 258 259 259 258 258 258 259 260 259 259 259 260 260 261 261 261 263 264 265 265
251 251 252 251 252 253 253 253 253 253 253 254 255 254 255 255 256 256 257 257 258 259 259 259 259 260 259 259 259 260 260 260 260 260 261 261 261 261 260 262 263 264 265
254 252 252 251 252 252 253 253 254 254 254 254 254 255 255 255 256 257 258 258 258 258 259 259 259 259 259 260 260 260 261 261 261 261 261 261 262 262 261 262 263 264 265
254 253 253 253 252 253 254 255 256 255 255 254 255 256 256 255 255 256 258 258 258 258 259 259 259 259 260 260 261 261 261 261 262 262 262 262 262 262 263 263 264 265 266
253 254 254 254 253 254 254 255 256 256 256 256 257 257 257 256 256 255 256 257 258 259 259 259 259 259 260 260 261 261 262 261 262 263 263 263 263 263 263 264 264 265 266
253 254 255 255 255 255 255 255 256 257 258 258 258 258 258 258 258 257 257 258 258 259 259 259 260 260 260 261 261 261 261 262 262 263 264 264 263 263 263 264 265 265 265
254 254 254 255 255 256 256 256 257 258 259 260 260 260 259 259 259 259 258 258 258 258 259 259 260 261 261 260 261 261 261 262 262 263 263 264 263 263 263 264 265 265 265
256 257 256 255 255 255 256 257 258 259 259 260 260 260 261 261 261 260 260 259 259 259 260 259 260 260 261 260 261 261 261 261 261 262 262 263 263 263 263 264 264 264 264
256 257 257 257 257 257 257 258 258 259 260 260 261 261 262 262 261 260 260 261 261 262 262 261 261 261 262 261 262 262 262 262 262 261 261 262 262 262 263 263 262 262 262
256 257 258 257 256 257 258 259 259 259 260 260 261 262 262 262 261 260 259 261 261 262 262 262 262 262 262 262 262 262 262 262 261 261 261 261 261 260 261 261 261 261 262
256 257 259 259 258 258 259 259 259 259 260 260 261 261 262 263 263 262 261 261 261 262 262 262 262 262 262 262 262 261 261 261 261 261 261 261 260 260 260 261 262 261 263
257 257 258 259 260 260 260 259 259 259 260 260 261 262 263 263 263 262 262 262 262 262 262 262 262 262 262 262 262 261 261 261 261 261 261 261 261 261 262 262 262 262 263
258 258 259 260 261 261 261 261 261 260 260 261 261 262 263 263 263 263 263 263 262 262 263 262 261 261 261 262 261 261 261 261 261 262 262 261 262 262 262 262 262 263 263
260 260 260 261 261 262 263 263 262 262 262 262 262 263 264 264 264 263 263 264 263 263 263 262 261 260 260 262 262 262 261 262 262 262 262 262 262 262 262 263 263 263 264
260 261 260 261 261 261 262 264 264 264 264 264 265 265 265 264 264 264 264 264 264 264 263 262 261 260 260 261 262 261 261 262 262 262 262 263 263 263 263 263 264 264 264
259 260 260 261 261 262 263 264 264 265 266 266 266 266 266 266 265 265 265 265 265 265 264 263 262 261 261 261 262 261 262 262 262 262 263 264 264 263 263 264 264 264 265
261 261 262 263 264 263 263 263 264 265 266 267 267 266 267 267 267 266 267 267 266 266 265 264 263 262 262 262 262 262 262 263 262 262 263 264 264 264 264 264 264 264 265
261 261 262 263 264 264 265 265 265 265 265 266 266 266 267 267 267 267 267 267 267 267 265 264 263 264 263 263 263 263 263 264 263 263 264 264 264 264 265 265 265 265 265
262 262 263 264 265 265 266 266 266 266 266 266 267 267 266 266 266 267 267 267 266 266 266 265 264 264 264 264 263 263 264 264 264 264 264 265 264 264 264 264 265 264 264
263 263 264 265 265 266 266 266 267 267 267 267 268 268 267 267 267 267 267 267 266 266 266 266 265 264 264 265 264 264 264 264 264 265 265 265 265 264 264 265 264 264 264
264 264 264 264 264 265 265 267 268 269 269 269 268 268 268 268 268 267 267 267 267 267 266 266 266 265 265 265 265 265 264 264 264 265 265 265 265 265 264 264 263 263 263
265 265 265 266 266 266 266 267 268 269 269 269 269 268 268 268 268 267 267 268 268 268 267 267 266 265 265 266 265 265 265 264 265 265 265 265 265 265 264 263 262 262 263
265 265 265 266 266 267 267 268 268 269 269 270 269 269 268 268 268 268 267 267 268 268 267 266 265 265 266 265 265 265 265 265 266 266 266 266 265 265 264 264 263 263 264
267 267 266 267 267 267 268 268 268 269 270 270 270 270 269 268 268 268 267 267 267 267 266 266 265 265 265 266 265 265 266 266 267 267 267 266 265 265 265 265 264 265 264
268 267 268 268 268 268 268 269 270 270 270 270 270 269 269 268 268 267 267 267 267 266 266 266 266 266 266 266 266 266 267 267 267 267 266 266 266 265 264 264 264 264 265